Lacey, Washington, United States (98503)
Lat: 47.03N, Lon: 122.82W
Wx Zone: WAZ504
Local Info
Past Weather Observations for Today

NOTE: This archive is for the closest National Weather Service station to Lacey. Information may differ from the station used for current weather conditions.

Click here for Long-term Archive

Time Weather Temperature Dewpoint Humidity Pressure Winds Precip Visibility
07:54
Overcast
48°F / 9°C 46°F / 8°C 94% 30.3 in
(1026 mb)
SE 3.5 mph
(SE 6 kph)
- 10SM
06:54
Clear
43°F / 6°C 41°F / 5°C 93% 30.27 in
(1025 mb)
Calm - 8SM
06:28
Partly Cloudy
Fog And Mist
39°F / 4°C 37°F / 3°C 93% 30.27 in
(1025 mb)
Calm - 4SM
06:21
Partly Cloudy
Fog And Mist
37°F / 3°C 37°F / 3°C 100% 30.27 in
(1025 mb)
Calm - 1 3/4SM
06:18
Obscured
Fog And Mist
39°F / 4°C 39°F / 4°C 100% 30.27 in
(1025 mb)
Calm - 3/4SM
06:11
Obscured
Fog And Mist
39°F / 4°C 39°F / 4°C 100% 30.27 in
(1025 mb)
ESE 4.6 mph
(ESE 7 kph)
- 1SM
06:09
Mostly Cloudy
Fog And Mist
39°F / 4°C 37°F / 3°C 93% 30.27 in
(1025 mb)
ESE 3.5 mph
(ESE 6 kph)
- 2 1/2SM
06:05
Partly Cloudy
39°F / 4°C 39°F / 4°C 100% 30.27 in
(1025 mb)
Calm - 9SM
05:58
Partly Cloudy
Fog And Mist
39°F / 4°C 39°F / 4°C 100% 30.27 in
(1025 mb)
Calm - 2 1/2SM
05:54
Partly Cloudy
Fog And Mist
39°F / 4°C 37°F / 3°C 93% 30.27 in
(1025 mb)
Calm - 1 1/4SM
05:50
Clear
Fog And Mist
39°F / 4°C 39°F / 4°C 100% 30.27 in
(1025 mb)
Calm - 1 1/4SM
05:31
Partly Cloudy
41°F / 5°C 39°F / 4°C 93% 30.27 in
(1025 mb)
Calm - 8SM
05:23
Mostly Cloudy
Fog And Mist
43°F / 6°C 41°F / 5°C 93% 30.27 in
(1025 mb)
Calm - 3SM
05:09
Mostly Cloudy
Fog And Mist
41°F / 5°C 39°F / 4°C 93% 30.24 in
(1024 mb)
Calm - 1 3/4SM
05:01
Obscured
Fog And Mist
39°F / 4°C 39°F / 4°C 100% 30.24 in
(1024 mb)
Calm - 3/4SM
04:59
Obscured
Fog And Mist
41°F / 5°C 39°F / 4°C 93% 30.24 in
(1024 mb)
Calm - 1SM
04:57
Clear
Fog And Mist
41°F / 5°C 39°F / 4°C 93% 30.24 in
(1024 mb)
Calm - 1 3/4SM
04:54
Clear
Fog And Mist
41°F / 5°C 39°F / 4°C 93% 30.24 in
(1024 mb)
Calm - 3SM
04:43
Partly Cloudy
Fog And Mist
43°F / 6°C 41°F / 5°C 93% 30.24 in
(1024 mb)
Calm - 1 3/4SM
04:38
Partly Cloudy
41°F / 5°C 39°F / 4°C 93% 30.24 in
(1024 mb)
Calm - 7SM
04:23
Partly Cloudy
Fog And Mist
41°F / 5°C 39°F / 4°C 93% 30.24 in
(1024 mb)
Calm - 1 3/4SM
03:54
Clear
Fog And Mist
43°F / 6°C 41°F / 5°C 93% 30.24 in
(1024 mb)
Calm - 6SM
03:26
Clear
45°F / 7°C 43°F / 6°C 93% 30.24 in
(1024 mb)
Calm - 7SM
03:17
Clear
Fog And Mist
45°F / 7°C 43°F / 6°C 93% 30.24 in
(1024 mb)
Calm - 2SM
02:54
Clear
43°F / 6°C 43°F / 6°C 100% 30.21 in
(1023 mb)
Calm - 9SM
01:54
Partly Cloudy
46°F / 8°C 45°F / 7°C 93% 30.24 in
(1024 mb)
Calm - 7SM
00:54
Clear
46°F / 8°C 45°F / 7°C 93% 30.24 in
(1024 mb)
Calm - 9SM
Time Weather Temperature Dewpoint Humidity Pressure Winds Precip Visibility


Weather for websites

WeatherForYou.com, LLC is not responsible for any damages or problems caused by this service. Current weather conditions are obtained from the closest station including government and personal stations which may have varying degrees of accuracy. Weather forecasts are derived from the NOAA NDFD. Like all things, this site belongs to Jesus Christ... He just trusts me to maintain it. If you have any questions or comments email webmaster@weatherforyou.com

Copyright © 2014, WeatherForYou.com LLC. All rights reserved.